Location: Cruquius
(52.3348°N, 4.6319°E)
Time: 02:40:47
(UTC+00:00)

ATLAS 5 CENTAUR R/B - Pass Details

Date: 12 May 2021
Orbit: 516 x 1141 km, 63.3° (Epoch: 02 May)

Event Time Altitude Azimuth Distance (km) Brightness Sun altitude
Rises 20:18:25 0° 310° (NW) 3,238 7.9 -7.2°
Reaches altitude 10° 20:20:51 10° 301° (WNW) 2,405 6.2 -7.4°
Maximum altitude 20:25:50 34° 238° (WSW) 1,463 3.6 -8.0°
Drops below altitude 10° 20:31:34 10° 177° (S) 2,773 4.4 -8.6°
Enters shadow 20:33:25 - 171° (S) 3,403 4.8 -8.8°
